Simultaneous Nadir Overpasses (SNOs) Predictions

Prediction of SNOs between METOP-C and LANDSAT-8 Satellite Orbit:

Table of predicted SNOs for the next 14.0 days since TLE Epoch: 10/5/2019
Index Date (METOP-C) Time (METOP-C) Lat,Lon (METOP-C) SZA (METOP-C ) Date (LANDSAT-8) Time (LANDSAT-8) Lat,Lon (LANDSAT-8) SZA (LANDSAT-8 ) Distance(km) Time Diff (sec)
1 10/06/2019 04:07:34 81.15, 158.40 88.49 10/06/2019 04:07:49 81.15, 158.42 88.49 0.49 15
2 10/06/2019 04:58:14 -81.17, -33.59 91.42 10/06/2019 04:57:15 -81.17, -33.61 91.45 0.57 59
3 10/08/2019 23:41:55 81.16,-134.87 89.62 10/08/2019 23:42:04 81.16,-134.88 89.63 0.35 9
4 10/09/2019 00:32:35 -81.18, 33.16 90.28 10/09/2019 00:31:30 -81.18, 33.10 90.31 0.92 65
5 10/11/2019 19:16:16 81.16, -68.52 90.69 10/11/2019 19:16:19 81.15, -68.59 90.68 1.23 3
6 10/11/2019 20:06:56 -81.18, 99.52 89.21 10/11/2019 20:05:45 -81.18, 99.42 89.25 1.81 71
7 10/14/2019 14:00:00 -81.14,-170.13 88.35 10/14/2019 14:01:09 -81.14,-169.98 88.30 2.69 69
8 10/14/2019 14:50:37 81.17, -1.79 91.80 10/14/2019 14:50:34 81.17, -1.95 91.78 2.83 3
9 10/17/2019 09:34:22 -81.13,-103.77 87.30 10/17/2019 09:35:25 -81.13,-103.72 87.28 0.89 63




NCC Satellite Simultaneous Nadir Overpasses (SNOs) Prediction Service
